Location: Unspecified
(0.0000°N, 0.0000°E)
Time: 07:14:19
(UTC+00:00)

Vanguard 2 Rocket - Pass Details

Date: 11 October 2022
Orbit: 555 x 3321 km, 32.9° (Epoch: 06 December)

Event Time Altitude Azimuth Distance (km) Brightness Sun altitude
Rises 12:02:54 0° 197° (SSW) 4,335 10.5 81.8°
Reaches altitude 10° 12:11:21 10° 152° (SSE) 4,310 10.5 80.6°
Maximum altitude 12:11:45 10° 150° (SSE) 4,351 10.6 80.5°
Drops below altitude 10° 12:12:07 10° 148° (SSE) 4,390 10.6 80.5°
Sets 12:24:10 0° 107° (ESE) 6,483 11.2 78.3°
